Wind_Speed
12 16 19 22 22 19 19 21 24 22 21 24 24 24 24 26 27 25 26 24 22 29 36 34 31 30 27 21 17 19 18 16 26 37 32 25 22 23 21 20 21 22 23 22 15 10 13 13 8 6 5 3 2 2 4 4 3 3 6 8 10 13 16 18 17 16 16 15 12 12 13 13 13 12 12 12 11 9 7 6 6 6 6 6 6 7
11 19 23 21 18 17 17 18 19 17 18 22 24 24 25 28 28 25 27 28 28 31 37 31 24 27 27 17 12 16 16 11 21 32 27 19 18 21 23 24 25 26 24 20 13 9 9 7 4 4 3 2 2 3 4 5 3 3 5 8 12 15 18 19 19 18 18 16 14 12 12 11 10 10 10 11 11 10 8 7 7 6 6 6 6 6
18 22 24 19 15 15 16 17 20 20 19 19 21 21 24 28 27 22 21 21 25 26 31 29 20 22 24 17 13 15 16 14 18 20 19 17 18 24 27 26 26 23 19 17 12 6 4 4 4 5 4 7 6 4 3 3 3 3 6 9 13 16 18 20 20 21 20 18 17 15 12 10 8 9 10 11 11 10 10 10 8 7 7 6 6 5
22 17 15 16 15 15 18 19 20 23 21 18 17 17 22 27 22 18 13 7 21 20 18 21 17 15 18 18 20 18 16 18 20 19 21 21 22 24 24 23 21 17 14 14 11 6 5 3 6 4 5 6 5 1 3 2 1 3 7 9 12 15 17 20 23 23 22 20 19 16 13 11 10 11 11 11 11 11 11 10 10 9 8 7 7 6
25 15 7 10 14 15 19 21 21 22 20 17 16 16 21 26 23 18 12 4 12 16 11 11 11 10 12 17 21 20 18 21 23 26 26 25 24 23 22 20 17 16 13 12 12 9 7 8 9 5 4 3 2 3 3 1 1 2 6 9 12 15 18 22 25 24 22 19 19 18 15 14 13 13 12 12 11 10 10 10 9 8 8 8 7 6
25 22 16 14 13 14 17 21 21 20 19 19 21 20 20 24 25 20 13 10 4 13 12 9 7 8 12 18 19 18 22 23 23 28 27 25 26 24 21 20 20 18 14 14 14 11 7 9 11 6 2 2 5 6 4 4 3 0 3 8 12 16 21 24 26 23 19 18 19 17 16 14 13 13 13 12 11 10 9 9 8 7 8 7 7 7
20 20 20 20 17 16 19 21 19 16 17 20 24 22 20 21 23 19 13 14 11 5 9 8 7 6 11 17 17 14 19 21 23 26 23 22 24 23 21 20 21 20 18 19 17 12 7 8 9 5 3 4 6 7 5 5 3 1 1 7 11 17 22 24 25 20 16 20 20 17 15 14 12 12 13 12 11 10 9 9 8 7 7 7 7 7
21 17 18 20 19 17 18 18 15 14 16 21 22 18 17 16 17 16 13 14 16 9 5 8 8 7 11 15 14 13 18 23 24 23 21 20 20 19 19 18 19 18 17 18 15 12 10 9 9 8 8 6 4 3 4 4 3 2 3 6 11 17 22 24 23 17 17 22 21 17 16 14 13 13 13 12 12 11 10 9 8 7 8 7 7 6
20 19 17 17 18 17 15 14 13 14 17 20 18 14 13 13 16 17 14 13 15 11 5 8 9 7 10 14 13 16 21 25 25 23 22 20 18 16 16 16 17 17 16 16 13 10 10 11 10 11 11 8 4 1 2 3 4 4 5 6 10 16 22 23 19 15 18 22 20 18 16 14 14 14 13 13 12 12 11 10 9 8 8 7 7 6
17 16 16 16 18 20 19 17 16 17 19 17 14 12 13 15 17 17 15 16 14 8 6 9 10 7 6 12 13 16 22 26 25 24 22 20 18 17 16 16 17 17 17 17 15 12 12 14 12 12 12 9 5 3 3 4 5 5 5 7 10 14 20 20 16 15 20 21 19 19 17 14 14 13 14 13 13 13 11 10 8 7 7 7 6 6
18 13 15 18 18 17 19 19 17 17 18 15 12 11 12 14 15 15 16 18 11 5 8 11 13 9 4 8 9 10 18 23 24 23 21 19 18 19 19 16 17 18 18 17 16 14 15 15 13 14 13 9 7 5 5 5 6 5 7 9 12 15 19 18 16 18 21 20 18 18 17 15 14 13 14 13 12 12 11 9 8 7 7 6 6 5
21 16 15 18 17 12 12 16 16 16 17 16 16 14 11 13 14 13 14 16 8 2 7 10 14 13 6 4 5 3 5 12 19 21 21 21 19 19 19 17 17 18 19 17 14 14 16 15 15 16 14 11 8 7 6 6 6 6 8 11 13 16 18 18 18 20 21 19 18 18 17 16 15 15 14 13 12 11 9 8 7 7 7 6 6 6
23 23 18 16 17 14 11 14 15 16 18 18 19 15 8 5 5 6 7 8 5 5 8 10 13 12 6 1 2 3 2 6 10 15 20 22 20 18 18 17 18 17 17 16 13 15 17 16 16 16 14 12 10 10 9 7 7 6 8 12 14 15 17 17 17 19 20 19 18 18 17 16 16 16 15 13 11 10 8 6 6 6 6 7 7 6
18 22 21 17 18 17 16 18 16 14 16 16 17 18 11 3 2 2 3 2 3 6 10 12 11 8 5 4 3 5 7 9 12 15 17 19 18 17 17 17 17 16 16 14 13 16 19 18 17 16 15 13 13 13 11 9 8 7 9 12 15 16 16 16 17 18 20 20 19 19 18 17 18 18 14 11 10 9 8 6 5 6 6 7 7 5
12 15 20 20 18 17 18 22 19 13 14 13 13 16 14 9 5 3 3 1 3 3 5 6 4 5 8 8 8 9 12 13 16 18 17 16 16 14 13 14 15 15 16 16 15 16 17 17 16 16 15 15 15 15 15 13 11 11 12 14 16 17 17 16 16 18 20 21 21 21 20 19 20 18 14 12 11 10 9 8 6 5 6 6 6 5
15 13 16 17 18 17 17 21 21 16 14 12 15 18 16 13 8 6 5 4 2 1 3 1 5 5 9 10 11 13 13 14 15 16 16 15 15 12 10 12 13 14 15 17 16 15 15 16 14 15 17 18 17 18 18 17 15 14 15 16 17 18 19 18 17 19 21 22 22 23 22 21 21 19 16 14 13 13 11 9 7 5 5 6 6 5
15 14 14 14 17 20 17 17 21 19 13 8 11 16 16 15 12 8 8 5 1 1 1 4 9 10 10 9 13 15 16 17 16 15 15 13 13 12 11 11 12 12 13 15 16 16 17 18 17 18 21 21 21 21 21 20 18 17 17 17 18 19 20 20 19 20 22 23 23 24 23 22 20 18 16 15 15 15 13 10 8 5 5 6 6 6
15 15 14 11 13 17 15 14 17 20 18 13 10 8 7 7 8 6 5 2 1 1 3 6 10 14 9 5 15 18 17 19 18 16 17 15 14 14 13 13 12 12 12 13 15 16 18 19 21 23 24 23 23 24 24 22 21 20 19 18 18 19 21 21 21 22 23 24 24 24 24 22 20 18 16 17 17 16 13 10 8 5 4 5 6 6
17 17 14 9 10 12 12 14 17 18 18 19 15 10 6 4 3 4 3 2 2 1 2 4 11 12 4 1 15 20 19 19 18 17 17 16 15 14 13 13 13 11 11 12 14 14 14 15 18 22 25 26 27 28 27 25 24 22 21 21 21 21 22 23 24 23 23 23 24 24 24 22 21 19 18 19 19 16 13 10 7 5 4 5 6 6
13 17 14 10 11 11 11 13 15 15 15 18 18 14 12 7 2 4 5 4 3 2 2 1 4 3 7 3 15 22 20 18 16 14 13 12 13 13 12 12 12 12 11 11 11 11 11 12 15 20 23 26 30 31 29 27 26 23 20 21 22 22 23 24 25 24 23 23 23 23 23 22 21 19 19 20 20 17 14 11 8 6 4 5 5 5
8 15 15 14 12 11 11 9 8 5 2 9 16 14 13 12 8 6 10 10 6 2 2 2 2 1 4 3 13 21 19 15 12 10 10 11 11 12 12 12 13 15 15 14 13 13 14 15 17 21 23 26 31 31 28 26 23 18 17 19 19 20 22 24 25 25 24 24 24 24 23 22 21 20 20 22 21 18 15 12 10 8 6 5 5 5
10 11 11 17 16 13 13 7 6 1 8 9 4 4 5 12 12 8 6 10 9 3 2 3 2 2 3 2 12 18 17 13 10 10 10 10 10 11 12 13 14 15 15 15 13 13 15 16 19 22 21 23 27 26 24 21 16 13 14 16 17 18 21 23 25 27 27 26 26 26 25 24 23 21 21 22 21 19 16 13 11 10 8 6 5 5
11 11 5 11 16 16 17 9 8 5 2 6 7 9 9 7 12 12 5 5 8 5 1 3 4 3 3 5 14 19 18 15 13 10 6 6 8 10 12 14 14 15 15 14 12 12 15 17 19 19 17 19 19 17 16 15 14 13 14 15 16 18 20 23 27 29 30 29 27 25 24 24 24 23 23 23 22 20 17 14 12 11 10 8 6 6
10 9 3 9 13 14 19 14 9 8 8 5 11 10 8 8 1 9 8 8 9 7 4 2 3 4 4 5 10 17 20 18 13 9 7 6 8 9 11 13 13 14 15 14 12 13 14 16 15 12 12 14 12 10 10 11 13 14 12 13 17 20 22 26 28 28 28 27 25 24 25 26 26 25 25 24 23 22 19 16 15 13 11 10 9 8
13 9 3 6 5 4 10 13 10 11 11 5 13 14 10 8 5 7 6 10 9 4 7 6 3 6 9 6 6 10 17 17 12 11 12 12 13 12 11 12 12 14 15 13 11 10 10 10 10 8 9 9 8 9 8 8 10 11 11 13 15 18 20 22 21 20 21 21 21 23 25 26 26 25 25 25 25 25 23 22 22 20 15 12 11 10
18 13 8 7 3 1 1 4 6 10 12 8 7 12 12 10 4 8 8 8 7 6 9 9 9 11 11 9 8 9 11 12 11 12 13 13 14 13 11 10 10 12 12 12 12 11 10 9 8 7 6 5 6 7 7 8 9 9 9 10 9 10 12 11 10 12 16 18 21 22 21 21 21 22 24 27 29 29 27 27 28 24 19 15 13 13
15 13 11 13 12 6 2 1 4 7 8 7 8 10 10 11 6 4 4 3 5 8 8 8 12 16 14 10 10 12 11 10 11 12 13 14 14 13 10 9 8 9 10 11 12 11 10 9 8 7 6 5 6 7 7 6 6 7 7 7 6 6 5 3 4 5 8 12 15 16 15 15 17 21 23 27 32 32 30 31 31 23 18 15 14 15
12 11 8 11 13 9 5 4 5 6 7 6 7 9 7 7 6 2 4 6 7 7 8 9 12 15 15 12 11 11 12 14 15 15 16 18 16 14 13 12 11 11 11 11 12 11 11 9 9 8 7 6 5 6 6 4 4 5 5 6 6 5 4 2 2 1 2 5 8 9 10 12 14 18 19 21 26 28 29 30 25 18 14 13 15 17
10 11 7 7 9 8 7 7 7 6 6 6 6 7 7 3 2 3 4 6 7 7 10 15 15 14 16 15 13 13 14 16 18 18 18 19 16 13 13 14 13 13 14 14 12 12 12 11 10 9 7 6 4 4 5 4 4 5 5 5 5 4 4 3 2 2 3 4 5 6 7 9 10 11 10 11 15 17 16 17 17 15 13 14 15 18
11 10 9 8 8 7 6 6 6 5 5 5 6 8 7 4 3 6 9 6 8 12 19 21 17 13 13 14 14 15 15 15 18 19 20 19 16 14 14 13 14 14 14 15 14 12 12 12 12 11 9 9 8 7 7 7 7 7 7 7 7 7 7 7 5 5 6 7 7 6 6 7 7 5 5 6 8 9 10 13 15 15 15 16 16 16
9 6 5 6 7 6 6 5 4 4 2 2 2 6 7 6 7 8 13 12 12 17 21 21 18 16 10 10 12 12 12 12 14 16 19 18 16 15 15 14 15 15 15 15 15 14 13 12 12 12 12 13 13 12 11 10 8 7 7 7 8 8 8 8 7 7 8 9 10 9 8 8 8 7 7 8 9 9 10 13 14 11 11 15 16 15
6 2 2 2 3 3 5 7 7 6 4 4 4 2 5 6 9 11 15 16 15 17 17 17 19 19 15 12 11 10 8 7 8 10 14 16 17 16 16 15 15 15 16 16 16 16 15 14 14 15 15 14 14 13 12 10 8 7 6 7 8 8 7 8 8 8 10 10 11 10 10 10 10 9 9 10 9 9 10 11 11 8 7 11 13 12
6 1 4 2 1 2 4 7 7 5 3 3 4 2 4 8 10 12 14 14 14 15 15 14 15 17 16 12 8 9 9 6 6 7 9 11 15 15 15 16 16 17 18 18 19 20 19 18 17 18 17 15 13 12 11 11 10 10 8 6 6 7 7 8 8 8 9 10 10 10 10 10 10 9 9 9 8 9 10 11 10 9 9 9 10 11
6 6 3 1 2 4 6 7 4 3 5 5 5 2 3 7 9 11 10 9 10 13 15 15 13 13 12 8 5 6 7 5 6 6 6 6 7 7 8 12 16 18 20 21 22 21 21 20 19 18 16 15 13 12 13 13 13 13 12 10 8 7 6 6 7 8 8 9 9 10 10 10 10 9 9 7 7 8 11 11 11 10 10 10 10 13
5 10 8 6 4 4 8 7 2 2 4 6 7 7 6 4 5 8 9 7 6 7 9 12 13 11 9 7 6 6 5 4 5 5 5 5 5 4 4 5 9 15 21 23 23 21 21 20 18 16 15 15 15 14 15 14 14 15 15 14 13 12 11 11 11 11 10 9 9 9 8 8 7 7 8 6 5 7 8 9 10 10 11 11 11 14
4 9 10 9 7 6 8 7 3 4 7 9 13 14 12 9 7 6 8 7 6 9 11 12 12 10 8 5 5 5 4 4 3 2 2 3 4 5 4 3 5 11 17 21 23 22 20 16 15 16 17 19 18 17 16 15 16 17 17 15 14 14 15 17 16 16 15 13 12 11 10 9 8 8 8 7 6 7 8 8 9 10 11 12 12 13
5 10 10 9 8 6 8 9 6 7 6 7 12 14 13 13 13 12 14 12 6 4 7 12 15 15 13 9 7 7 6 6 5 3 2 1 2 3 3 4 7 9 11 14 16 17 13 11 14 16 17 17 17 16 16 16 17 19 19 18 16 15 15 16 16 16 16 16 16 15 13 11 10 9 9 9 8 9 9 10 11 10 11 12 12 13
5 9 9 7 7 7 8 8 6 4 3 6 9 12 12 14 14 15 17 15 9 6 5 5 8 9 9 8 5 5 6 6 5 5 5 5 4 4 5 5 7 9 10 11 11 10 10 12 14 13 11 11 12 13 15 16 18 20 19 17 16 15 13 13 13 13 14 16 17 16 15 14 12 9 9 10 11 10 9 10 10 10 10 11 11 13
6 9 7 7 8 9 8 7 4 3 3 5 8 9 13 16 17 18 16 14 11 11 10 9 10 9 8 6 5 3 4 2 6 7 6 9 9 8 7 6 6 8 9 10 11 11 12 14 14 14 14 13 11 12 14 16 16 18 18 16 14 13 12 12 11 10 11 13 14 13 12 12 11 9 8 9 9 9 8 8 9 9 10 11 12 14
3 6 3 3 6 7 6 6 5 4 4 4 6 9 12 14 16 16 11 9 9 13 13 12 14 13 12 10 8 4 4 4 11 10 7 8 8 6 5 4 5 6 7 7 7 7 8 10 10 11 11 12 12 14 15 16 17 18 17 16 16 16 15 15 14 13 12 12 12 11 10 10 11 11 12 10 8 8 8 9 10 11 12 13 14 15
3 4 5 4 3 3 5 7 7 4 4 4 5 7 9 9 10 11 10 10 11 15 16 18 19 17 16 15 13 10 8 10 14 14 11 9 7 4 3 2 3 4 4 4 4 4 4 5 5 5 5 6 11 14 16 18 20 20 20 20 21 20 19 19 19 19 18 17 16 15 13 12 13 14 14 14 12 12 11 11 12 13 13 14 15 16
6 6 6 7 8 7 7 9 8 5 3 2 2 4 6 8 13 16 16 15 14 16 18 19 20 20 19 18 17 15 13 15 15 14 12 11 10 8 5 2 2 1 1 2 3 4 5 6 5 5 5 6 8 11 14 17 19 21 22 23 24 23 23 23 23 23 23 22 21 20 19 19 19 18 17 17 17 18 17 16 15 14 13 14 14 15
8 6 7 8 9 8 9 10 7 3 1 1 2 3 5 9 16 21 22 19 17 17 18 18 19 19 17 16 16 14 15 16 15 14 13 12 12 11 8 5 3 3 2 2 4 5 5 6 6 6 6 7 8 10 12 14 16 18 20 22 23 23 25 25 26 27 27 27 26 26 25 24 24 24 23 22 21 20 19 18 18 17 16 16 16 16
6 6 7 8 6 5 7 9 7 3 2 1 3 6 7 12 18 20 20 18 16 16 16 17 17 17 16 15 15 15 15 16 16 15 15 13 12 13 13 10 9 8 6 6 7 7 6 6 6 7 7 8 9 11 12 14 15 16 18 19 20 21 22 24 25 26 27 27 27 27 25 24 23 23 24 24 24 23 20 19 20 19 19 19 19 19
7 8 7 6 6 6 8 12 12 8 5 5 6 9 11 15 18 18 16 15 14 13 13 13 12 13 13 14 15 15 16 16 16 16 15 14 14 15 14 13 13 13 12 12 12 12 11 10 9 9 9 10 11 12 14 15 16 17 18 19 20 21 22 23 24 25 26 26 26 26 25 24 24 24 25 25 26 26 25 24 24 23 22 23 23 22
9 9 8 6 9 11 12 13 10 6 6 8 10 12 14 16 16 15 14 13 12 11 10 9 9 10 11 12 14 15 16 17 17 17 16 14 14 14 14 14 15 16 17 17 16 15 15 14 13 13 13 14 14 15 16 17 18 20 21 22 23 23 24 24 25 26 28 28 29 29 28 27 27 28 28 28 28 28 28 28 27 27 26 26 26 26
8 7 6 8 8 8 11 11 6 5 7 9 11 12 12 12 11 11 11 12 12 11 10 10 10 10 10 10 11 13 14 16 16 16 15 14 13 13 14 16 18 19 20 19 18 16 15 14 15 16 17 17 17 17 18 19 21 22 23 24 25 26 27 28 28 29 30 31 31 32 32 31 30 30 30 31 31 30 29 28 27 26 25 25 26 26
7 4 4 7 7 7 13 12 8 8 7 5 7 9 8 7 8 9 10 11 12 11 10 9 8 7 8 8 9 10 11 13 14 14 13 13 13 13 15 16 17 19 20 20 20 18 16 16 18 20 20 21 21 22 22 23 23 24 25 26 27 28 30 31 32 32 33 33 34 35 36 35 34 33 33 32 31 30 28 27 25 25 24 25 26 26
6 5 4 4 5 10 13 11 10 11 9 4 2 2 2 2 4 6 7 6 7 6 4 2 1 1 2 5 6 7 8 10 11 11 11 11 13 15 16 16 17 18 20 21 22 21 19 20 22 23 22 22 22 23 23 24 24 25 25 26 27 29 31 32 33 34 35 37 38 38 39 40 39 38 36 35 33 32 30 28 27 27 26 26 27 28
7 9 5 2 5 13 14 12 11 13 13 8 2 1 3 3 1 1 2 3 4 5 5 4 3 4 4 5 7 8 9 10 11 12 13 14 15 18 20 22 21 20 19 19 21 21 21 22 22 22 20 19 18 19 20 20 21 22 23 24 25 26 29 30 31 33 35 37 39 40 41 42 42 42 40 39 38 37 36 35 33 33 32 30 30 30
4 6 4 4 11 14 13 12 9 8 11 11 8 5 5 4 3 4 4 5 8 10 10 10 9 9 9 10 12 13 13 14 16 17 16 14 16 20 23 23 22 20 19 19 21 21 20 20 19 18 17 17 17 18 18 19 20 21 22 22 23 24 26 27 28 29 31 33 34 36 38 40 41 43 43 44 43 43 42 41 40 39 38 36 35 34
Wind_Direction
215 221 224 226 222 216 217 217 218 227 239 249 260 267 275 281 270 267 271 258 246 236 221 215 218 216 218 237 260 239 234 255 232 212 204 210 229 243 236 220 221 232 239 238 229 230 254 263 273 278 258 234 247 298 336 326 306 243 209 209 209 207 203 196 197 202 200 195 190 181 172 163 152 145 150 153 152 157 158 158 161 159 157 166 177 183
218 224 228 230 228 217 214 222 225 235 249 256 265 272 277 277 271 278 280 265 255 234 210 204 215 215 218 234 247 232 240 237 192 191 199 213 235 234 216 212 225 236 239 243 248 244 261 285 277 234 192 116 55 33 350 332 323 250 227 217 209 209 205 200 201 201 195 192 189 186 180 168 154 144 146 146 146 148 147 142 142 137 135 139 139 143
227 230 235 233 230 224 220 225 235 245 251 258 263 266 269 265 266 292 298 258 233 213 192 193 208 211 215 226 221 222 243 229 190 190 199 204 217 214 214 225 229 230 237 253 264 255 294 328 224 199 96 67 57 36 350 340 322 264 238 223 209 207 209 205 198 190 186 185 186 187 184 174 156 152 156 151 148 145 139 135 128 116 109 109 109 109
226 233 241 228 216 226 235 236 244 250 245 249 256 259 267 262 267 309 343 146 172 172 169 185 201 209 210 218 225 229 242 233 217 213 203 197 204 207 213 222 221 227 247 266 272 270 291 248 188 153 87 81 80 34 308 333 328 264 248 239 220 211 208 197 186 180 179 182 186 185 181 174 164 165 164 152 148 143 136 132 125 115 107 100 98 94
227 234 248 222 210 220 235 240 245 249 245 248 252 260 272 260 262 295 330 66 160 173 186 204 214 229 212 214 230 234 235 232 220 215 210 204 208 214 216 219 228 239 251 265 267 274 274 217 180 133 111 124 144 228 250 163 147 241 244 234 224 216 206 192 183 178 176 179 184 182 178 174 169 168 158 147 143 139 133 128 122 117 109 103 98 90
232 239 248 239 229 219 225 239 243 243 250 257 250 253 270 265 265 280 295 313 255 180 193 219 231 254 234 223 235 239 235 231 212 205 210 211 215 228 234 237 246 244 243 253 255 267 260 197 169 138 136 244 267 252 226 164 147 151 232 216 214 211 204 194 185 177 172 177 182 180 178 172 166 163 154 146 141 135 132 126 121 116 107 102 94 85
238 241 243 241 242 230 222 233 237 237 251 260 254 251 261 270 275 279 283 296 291 204 178 194 207 246 249 236 237 240 225 208 192 193 204 212 218 231 238 239 243 241 245 250 250 256 239 186 164 161 205 247 264 257 228 189 156 69 205 200 201 203 204 196 186 183 181 180 181 180 178 172 166 162 155 148 142 137 134 126 123 115 105 98 88 78
240 245 241 237 239 232 221 225 232 240 248 256 260 255 250 265 282 283 280 283 284 276 222 211 222 239 256 247 237 236 214 190 184 190 200 211 217 226 227 228 237 242 248 248 246 250 231 194 180 194 216 220 221 247 236 210 189 154 149 179 190 194 199 194 186 189 183 179 183 184 183 177 169 164 156 150 145 140 136 131 128 116 105 98 89 80
238 244 239 231 230 231 230 232 240 245 246 254 264 256 244 261 282 279 270 271 277 278 232 205 215 230 256 252 242 241 217 190 187 195 198 207 214 222 224 230 242 246 248 246 245 246 215 185 184 206 216 202 177 200 227 197 185 157 133 160 180 183 188 187 184 183 175 177 186 189 190 184 172 167 160 154 148 144 143 139 133 121 111 103 95 86
240 241 238 230 225 232 239 241 246 244 245 259 271 263 257 265 271 263 251 254 259 250 213 204 214 223 253 256 253 242 215 192 190 200 205 211 219 232 238 240 246 248 250 249 247 239 200 178 194 219 217 200 182 187 176 164 167 147 126 150 171 177 179 181 184 182 177 183 191 193 196 188 178 174 166 160 155 151 149 145 137 126 118 109 102 92
240 240 240 232 225 232 238 238 238 238 240 251 260 256 257 265 268 258 242 246 255 227 201 212 230 238 253 267 264 236 221 210 201 202 212 223 231 238 239 241 247 247 244 239 234 224 198 184 202 222 220 206 194 199 192 177 170 144 130 150 169 177 178 182 189 186 183 190 196 196 195 187 181 178 171 167 163 159 154 145 136 126 120 114 106 99
236 240 237 225 221 222 232 238 236 233 232 234 238 240 246 255 264 264 239 231 246 232 197 215 239 239 222 261 274 229 222 215 210 216 222 222 224 227 229 237 243 238 233 228 218 210 202 198 209 223 225 213 203 211 205 186 179 153 138 152 168 177 182 189 193 191 192 197 198 196 193 186 182 180 176 174 169 166 160 148 134 119 115 112 106 99
231 239 241 231 229 219 221 238 239 238 239 231 222 220 235 255 253 262 238 216 227 232 225 233 237 227 195 131 267 240 129 143 193 223 221 212 213 222 231 241 241 232 231 231 217 205 206 207 214 225 228 219 212 216 211 197 189 167 149 158 169 177 182 188 194 197 199 200 198 198 196 188 186 186 183 179 178 176 171 158 135 116 109 105 100 94
231 236 241 241 239 231 227 234 237 240 245 239 212 200 207 202 126 249 240 200 229 237 246 244 226 208 188 134 136 207 211 199 205 218 214 206 211 225 237 240 236 230 229 228 219 214 214 214 219 227 228 221 215 215 213 206 198 184 170 168 173 180 184 188 193 197 199 199 199 202 202 196 193 193 191 191 196 198 195 184 153 125 110 99 94 93
240 230 231 230 230 234 232 227 228 236 242 239 213 204 215 213 186 209 238 220 208 230 274 263 208 185 185 153 142 182 205 208 211 218 218 215 221 230 232 225 222 225 226 222 221 223 216 212 217 224 227 225 218 215 214 210 205 196 186 180 179 183 187 191 195 197 199 202 205 208 207 203 201 203 209 219 220 213 208 197 173 139 110 94 89 96
249 244 235 233 229 236 241 224 216 226 241 232 214 221 239 242 223 194 207 233 206 20 329 44 100 153 182 166 165 185 200 205 207 213 218 223 229 226 208 203 210 220 225 221 222 220 207 204 212 218 225 228 222 216 213 211 209 201 193 190 186 185 188 193 196 200 204 208 211 210 208 207 210 215 225 231 223 213 209 198 181 155 118 93 90 103
244 250 245 245 232 228 238 231 215 219 237 233 213 223 233 243 242 201 186 216 210 41 243 133 103 126 154 173 194 201 206 208 207 209 212 217 223 220 211 210 216 223 228 225 224 223 213 209 212 216 222 226 225 220 215 212 210 204 200 198 194 190 190 193 197 204 209 214 214 211 210 212 216 222 227 223 216 211 207 199 184 163 127 96 94 108
243 250 246 243 228 218 227 238 227 225 238 244 239 232 207 214 230 194 149 149 128 87 222 195 153 145 138 176 207 211 209 204 205 208 209 212 216 220 221 216 215 219 222 220 217 219 218 212 210 213 217 220 223 220 213 210 208 203 202 203 201 198 195 194 199 207 213 218 216 212 212 217 221 226 224 214 210 209 204 197 185 167 132 99 99 111
247 253 255 240 226 221 218 229 231 229 237 243 245 247 221 174 166 175 141 132 167 145 279 231 164 151 60 337 203 210 211 199 199 205 211 217 218 216 210 202 200 206 214 216 210 211 216 215 213 214 213 217 223 219 210 206 203 200 200 201 201 202 202 201 204 210 216 217 215 213 214 220 225 227 222 213 210 208 203 196 187 176 144 108 105 116
239 241 249 233 229 238 231 237 239 226 228 237 240 244 236 222 214 214 198 172 158 162 221 265 127 127 352 322 202 211 215 203 198 202 208 211 208 203 199 194 199 212 222 221 211 211 221 227 224 219 213 216 223 220 212 206 200 195 198 202 201 202 205 207 209 214 216 213 212 214 217 223 227 229 224 214 210 207 200 193 188 181 161 129 118 126
227 225 237 230 230 238 231 254 269 233 264 253 237 235 230 228 240 227 209 201 187 157 172 125 59 345 335 289 213 209 206 202 206 209 200 192 192 195 196 197 202 209 214 214 213 220 229 229 224 220 216 216 220 217 212 208 200 193 201 210 210 208 207 210 214 217 216 212 211 215 220 224 225 227 224 216 211 206 195 189 188 183 175 155 137 145
236 211 229 232 232 229 216 253 299 275 29 7 307 313 282 237 222 195 199 218 213 211 199 177 153 100 52 254 213 198 187 182 194 205 197 188 194 200 201 203 205 204 206 208 209 220 228 225 222 224 219 213 215 216 212 208 200 195 208 215 217 215 210 211 215 217 217 215 215 218 221 223 223 223 221 217 212 203 192 188 189 186 185 180 164 167
233 197 219 243 237 228 215 244 302 254 264 6 11 8 347 283 221 196 186 226 227 246 271 124 129 119 93 165 182 178 176 180 184 186 188 194 204 206 203 203 207 208 204 198 195 207 217 217 218 223 216 205 209 218 214 203 192 194 207 215 218 216 213 214 216 217 217 216 217 221 223 223 224 222 219 219 215 207 197 193 194 193 194 193 186 187
217 188 248 262 242 232 222 234 280 267 247 331 21 21 358 353 249 207 219 213 216 242 232 130 104 155 144 152 171 165 164 172 177 172 172 187 193 193 190 189 194 199 195 187 186 193 200 202 202 202 201 198 197 200 197 186 181 184 196 212 214 211 213 217 217 217 217 212 210 215 218 220 221 218 219 220 217 211 202 192 191 195 199 202 201 201
209 187 248 269 245 244 236 241 263 264 253 305 21 21 1 7 83 134 167 179 174 176 187 173 118 158 164 164 180 167 161 166 173 174 172 171 172 177 179 178 179 180 177 171 168 166 164 171 172 169 186 193 176 170 169 158 163 174 189 209 214 214 223 230 228 227 228 223 220 221 221 222 223 220 218 219 220 220 211 200 201 200 197 204 211 210
209 205 231 252 235 128 230 239 244 252 252 262 338 1 4 12 70 142 151 164 155 135 156 153 131 144 164 174 178 178 178 177 175 178 178 173 175 179 178 179 177 169 163 155 147 139 131 135 139 140 160 166 139 136 134 130 143 162 180 195 203 218 239 254 250 240 237 235 235 235 230 231 234 231 226 223 225 226 216 214 221 214 196 197 212 218
193 201 236 249 241 236 253 222 218 251 262 258 283 309 343 13 18 200 184 128 143 141 129 139 153 152 153 169 180 182 189 191 187 189 184 178 180 179 173 172 163 155 158 155 144 135 132 136 138 133 139 140 122 117 120 124 137 148 154 159 163 181 212 235 232 228 228 226 226 229 228 232 240 243 239 233 230 225 221 229 234 218 193 192 207 219
188 193 230 242 230 231 258 264 257 273 273 253 262 279 300 9 32 177 160 114 143 146 114 137 170 164 155 169 188 185 185 188 189 189 187 183 183 177 171 166 150 140 146 149 142 135 131 134 139 136 136 140 131 132 137 136 145 151 150 152 156 161 164 169 201 217 226 225 225 228 226 224 231 238 240 241 240 235 234 237 229 207 196 203 206 215
210 210 231 239 227 229 240 243 246 254 258 258 267 273 274 300 52 126 130 140 170 161 137 153 169 169 165 176 190 194 194 190 185 185 187 187 184 177 172 167 158 152 152 154 156 152 146 147 148 145 146 158 172 186 179 179 191 195 187 174 169 177 183 187 217 230 220 220 218 218 213 207 213 219 221 236 244 235 224 219 205 196 211 220 214 217
213 214 223 226 223 214 196 205 231 243 257 272 278 274 260 225 142 110 103 132 174 153 148 160 161 150 161 182 190 193 200 202 198 194 188 184 183 181 178 174 171 173 173 174 176 173 169 171 168 165 174 186 197 210 213 219 221 215 213 205 196 201 210 212 221 235 237 234 228 222 219 219 220 217 215 228 236 222 206 206 208 211 222 225 222 223
200 203 221 216 211 200 173 166 198 225 243 232 243 264 246 192 167 140 115 120 139 137 144 161 154 131 139 181 185 181 190 204 208 195 183 185 191 187 185 186 183 181 183 185 190 191 188 187 183 183 193 200 202 203 207 216 224 223 226 225 217 212 217 223 232 246 253 252 247 240 238 246 251 252 245 240 243 241 226 217 220 224 222 219 221 224
205 85 59 185 217 222 181 177 195 197 171 134 111 292 255 198 178 158 128 119 126 128 136 151 142 129 139 163 163 151 154 177 190 177 174 189 199 192 192 202 201 192 188 190 198 204 201 194 191 194 202 210 212 209 208 210 216 221 224 232 238 235 235 240 246 257 260 257 255 248 242 246 251 250 242 236 239 239 222 209 214 219 209 213 225 235
240 49 54 109 53 49 128 173 200 186 130 70 46 24 247 228 202 167 136 121 124 130 137 143 138 135 141 143 130 115 113 125 153 160 168 191 203 197 194 206 209 197 191 193 197 200 201 200 198 199 203 210 214 217 222 223 220 220 216 218 235 242 245 246 246 251 255 252 251 246 239 241 248 250 245 234 226 218 208 202 206 209 213 228 245 251
231 218 215 178 83 81 134 168 185 122 88 40 21 41 214 230 222 196 166 142 129 127 132 138 140 140 134 121 109 119 120 123 140 146 152 174 200 203 196 210 214 202 195 198 200 199 202 205 205 202 200 204 211 219 230 232 227 223 217 212 217 227 231 229 225 228 236 241 245 244 237 237 246 251 247 234 213 200 198 197 202 216 234 244 245 243
209 205 199 190 179 155 158 165 137 81 109 96 96 118 136 150 197 200 181 173 179 172 159 151 150 153 148 134 129 135 137 141 143 149 156 155 163 178 185 205 216 208 201 200 202 205 206 207 210 210 209 209 210 215 222 228 232 232 227 221 224 229 230 229 228 230 230 231 237 241 236 233 239 248 250 242 224 214 210 208 216 235 247 244 237 241
210 198 193 186 180 158 146 143 125 136 151 137 128 135 143 138 141 156 144 140 184 215 219 210 198 201 206 193 182 187 195 206 202 187 185 168 156 165 175 168 184 204 204 195 190 192 197 206 221 226 221 214 209 209 214 219 227 232 232 229 226 225 228 233 235 235 233 231 231 235 240 242 242 243 246 238 220 213 209 210 222 237 241 238 238 245
206 198 199 188 177 166 144 133 131 138 153 161 142 137 144 138 126 129 131 124 137 194 224 226 225 231 237 237 238 237 229 226 227 208 165 177 189 181 190 188 181 192 205 201 190 185 190 219 235 229 221 214 207 209 217 221 224 226 227 227 224 218 220 227 229 229 232 233 233 232 231 231 228 226 230 227 217 209 202 204 218 232 242 244 241 241
208 200 213 201 179 173 153 133 129 138 174 201 167 146 149 143 133 137 133 123 125 124 114 166 200 214 219 216 212 215 222 220 200 172 154 164 199 224 225 222 211 205 213 224 225 217 217 231 239 239 240 235 221 219 228 231 228 221 214 211 214 217 218 220 223 229 237 241 241 237 229 223 222 225 227 223 222 222 215 211 222 234 241 242 238 236
202 198 215 207 179 172 164 144 136 144 162 204 197 179 167 152 147 149 133 111 126 138 121 114 116 118 135 141 136 181 235 199 129 131 164 177 183 206 223 231 232 227 230 238 244 245 240 240 246 253 258 255 240 228 230 231 227 220 210 201 205 214 216 214 213 219 233 245 251 252 248 238 229 224 222 223 233 245 242 230 228 227 224 225 227 232
190 178 183 206 187 181 162 126 110 117 133 166 194 202 191 167 153 150 123 89 131 154 148 139 131 128 135 136 137 172 227 160 136 144 188 202 189 193 207 214 220 222 229 234 236 241 245 248 251 250 250 247 236 227 226 226 223 221 217 216 221 224 225 226 223 218 223 234 240 245 255 259 252 247 246 245 248 250 237 222 220 222 220 219 222 226
66 91 54 55 111 136 130 110 101 111 145 163 185 210 208 175 138 123 105 103 141 160 158 154 152 155 160 163 170 181 174 161 165 177 203 227 240 240 227 223 218 200 197 211 213 205 217 231 235 231 227 224 222 223 227 228 226 225 227 232 235 235 237 241 241 237 234 234 232 232 236 243 248 252 254 251 247 246 244 237 232 231 230 227 226 230
68 60 39 55 81 100 124 120 103 98 129 164 194 219 210 168 139 130 129 135 157 170 167 163 164 167 170 174 184 189 178 171 181 199 219 242 260 264 254 232 234 236 181 205 211 205 212 225 228 226 221 213 216 225 230 232 233 236 239 241 240 240 243 245 247 246 245 243 243 244 245 245 245 246 246 246 247 251 255 253 245 235 233 235 238 242
76 67 47 56 76 99 116 110 94 83 93 131 163 169 180 171 157 149 149 156 169 177 176 175 175 177 181 186 193 201 200 195 199 215 231 245 260 269 270 259 260 287 302 260 235 223 223 232 236 238 241 238 236 236 237 239 242 244 248 250 249 248 249 249 249 249 249 249 250 252 253 254 254 252 249 245 243 243 243 245 243 237 234 240 245 246
67 70 65 64 74 98 112 106 104 114 101 110 165 159 158 166 164 160 163 169 172 176 181 183 183 185 191 199 205 213 219 223 227 232 239 248 261 274 280 281 280 280 277 273 270 263 258 258 257 254 254 254 254 253 251 251 251 251 253 255 255 256 256 256 256 255 254 254 254 253 251 249 248 249 248 244 241 237 233 233 237 241 244 247 247 245
55 49 48 61 80 97 117 121 122 123 115 123 151 157 155 159 163 168 178 182 179 180 185 190 195 201 208 216 223 225 228 235 241 245 249 257 264 271 277 281 283 279 273 273 276 278 281 281 277 272 265 258 256 255 252 251 252 252 254 256 258 259 259 259 260 260 259 259 257 254 250 244 239 239 242 242 241 238 234 231 233 237 243 249 249 246
54 34 27 65 91 96 106 116 127 146 151 151 158 162 163 165 169 179 193 200 200 200 203 213 224 229 232 235 235 233 234 239 244 250 255 258 260 265 272 278 281 279 278 279 281 285 291 292 290 283 273 264 259 256 253 252 251 250 250 252 255 257 257 257 258 259 259 259 256 254 251 247 242 238 237 238 238 238 238 238 238 237 238 243 246 244
57 28 40 72 82 100 113 116 125 141 150 164 171 170 172 175 179 190 204 214 222 226 232 237 239 238 237 235 229 227 230 233 237 242 248 253 259 263 266 272 275 277 281 285 287 291 296 294 287 280 276 274 271 266 263 260 258 255 253 251 251 253 253 254 254 255 256 257 256 255 254 251 248 244 241 239 238 239 240 240 241 241 242 243 245 245
64 37 77 76 72 112 123 118 113 114 121 156 172 169 178 189 194 207 218 226 234 241 243 243 242 240 238 236 229 226 228 234 242 250 256 262 270 270 269 272 275 278 284 289 291 294 294 287 280 278 279 279 278 275 273 271 268 266 263 259 256 255 254 254 253 253 254 254 255 255 254 253 251 249 246 244 243 243 242 239 238 241 245 248 249 249
77 77 87 68 86 119 124 125 134 136 133 141 163 149 160 179 192 205 209 211 224 238 249 253 227 155 228 249 250 250 254 257 260 264 266 265 268 272 275 278 279 281 287 292 294 294 291 284 282 282 283 283 282 281 279 277 275 273 270 267 264 261 259 258 256 255 254 253 253 253 252 252 251 250 249 249 249 248 247 245 243 243 243 245 249 250
104 89 69 26 114 129 138 151 162 155 143 142 154 18 45 53 64 183 185 200 216 219 222 223 198 168 185 233 250 254 261 263 256 251 249 250 256 265 272 275 278 283 287 287 285 283 283 284 287 291 292 289 285 281 279 277 276 276 274 273 270 267 265 264 261 259 257 256 255 254 253 252 252 252 251 251 252 252 251 251 250 248 246 244 244 247
85 81 76 116 126 135 149 162 177 174 151 144 145 132 113 110 131 157 178 219 236 238 236 235 230 219 216 228 240 244 248 253 256 259 259 253 250 256 265 273 281 285 285 281 281 285 291 295 298 297 295 292 288 286 285 284 281 280 279 277 273 271 270 270 268 266 264 262 260 259 257 256 255 254 253 253 253 253 253 253 252 251 250 248 247 246
Height
3080 3080 3079 3078 3078 3080 3081 3083 3083 3084 3086 3086 3086 3087 3086 3085 3083 3080 3079 3080 3082 3082 3081 3085 3087 3090 3092 3093 3093 3094 3096 3096 3093 3097 3100 3100 3103 3107 3108 3104 3101 3101 3102 3104 3111 3117 3118 3118 3121 3122 3123 3124 3125 3127 3128 3128 3128 3127 3127 3128 3129 3129 3129 3129 3130 3130 3131 3132 3135 3138 3140 3142 3144 3146 3147 3147 3147 3146 3146 3146 3146 3147 3147 3147 3148 3148
3079 3077 3076 3077 3078 3079 3081 3082 3083 3084 3085 3085 3085 3085 3084 3081 3079 3078 3076 3076 3078 3077 3079 3084 3087 3088 3090 3092 3092 3092 3095 3095 3092 3095 3100 3101 3104 3106 3101 3096 3097 3102 3103 3105 3113 3118 3118 3118 3120 3121 3121 3122 3124 3125 3126 3126 3126 3126 3126 3127 3127 3127 3127 3128 3129 3129 3130 3131 3133 3135 3137 3139 3142 3144 3145 3146 3146 3146 3146 3146 3146 3147 3147 3147 3147 3148
3077 3075 3074 3076 3078 3079 3079 3081 3082 3083 3083 3083 3083 3083 3081 3079 3078 3078 3074 3071 3071 3074 3078 3083 3086 3088 3089 3091 3092 3092 3094 3095 3096 3098 3100 3101 3101 3098 3095 3093 3097 3101 3104 3108 3113 3117 3117 3117 3118 3119 3121 3121 3121 3122 3122 3123 3123 3124 3124 3125 3125 3126 3126 3127 3128 3128 3129 3130 3132 3134 3136 3138 3140 3142 3143 3145 3146 3147 3148 3148 3147 3147 3147 3147 3147 3147
3075 3072 3072 3075 3076 3077 3078 3079 3081 3082 3082 3082 3081 3081 3079 3077 3079 3080 3076 3072 3072 3075 3080 3083 3085 3087 3088 3090 3091 3092 3094 3094 3098 3100 3098 3098 3097 3095 3094 3094 3097 3101 3105 3109 3113 3115 3116 3116 3117 3120 3120 3119 3119 3120 3120 3121 3122 3123 3123 3123 3123 3124 3125 3126 3127 3128 3129 3130 3132 3134 3136 3138 3140 3141 3142 3144 3146 3147 3148 3148 3148 3148 3148 3148 3147 3147
3072 3069 3072 3075 3075 3076 3076 3077 3080 3080 3079 3080 3079 3079 3078 3076 3078 3081 3080 3078 3078 3078 3079 3082 3084 3085 3086 3088 3089 3091 3093 3093 3097 3097 3094 3096 3097 3095 3095 3096 3099 3102 3104 3107 3111 3113 3113 3114 3116 3118 3119 3118 3118 3118 3119 3121 3121 3122 3122 3122 3122 3123 3124 3125 3126 3128 3129 3130 3132 3134 3136 3137 3139 3140 3142 3143 3145 3146 3147 3147 3148 3148 3148 3148 3148 3147
3070 3069 3072 3074 3074 3074 3075 3075 3077 3077 3077 3077 3077 3078 3077 3075 3076 3080 3081 3080 3080 3079 3079 3082 3083 3084 3085 3087 3088 3089 3090 3091 3093 3092 3092 3095 3095 3094 3096 3099 3100 3102 3103 3107 3109 3111 3111 3112 3114 3116 3117 3117 3117 3117 3119 3119 3120 3121 3121 3121 3121 3122 3123 3124 3126 3128 3130 3131 3132 3134 3136 3137 3139 3140 3141 3142 3143 3145 3145 3146 3147 3147 3147 3147 3147 3147
3068 3069 3071 3072 3073 3073 3073 3074 3075 3076 3076 3075 3075 3077 3077 3075 3076 3078 3080 3080 3080 3080 3080 3081 3082 3083 3084 3085 3086 3087 3088 3088 3089 3089 3091 3093 3093 3095 3098 3100 3100 3102 3104 3106 3107 3109 3110 3111 3113 3114 3115 3116 3117 3117 3118 3119 3119 3120 3119 3120 3120 3121 3122 3124 3126 3128 3130 3131 3132 3133 3135 3137 3138 3140 3141 3142 3143 3143 3144 3145 3145 3146 3146 3146 3146 3146
3067 3068 3069 3071 3072 3072 3072 3073 3073 3075 3075 3073 3073 3076 3076 3074 3075 3076 3079 3080 3080 3079 3079 3080 3081 3082 3082 3083 3085 3087 3087 3086 3086 3088 3089 3090 3093 3095 3096 3098 3100 3101 3103 3104 3106 3108 3109 3111 3113 3113 3113 3115 3116 3117 3118 3118 3119 3119 3118 3118 3119 3120 3121 3124 3126 3128 3128 3129 3131 3132 3134 3136 3138 3139 3141 3141 3142 3143 3144 3144 3145 3145 3145 3145 3146 3146
3066 3066 3067 3069 3070 3070 3070 3071 3072 3074 3073 3072 3073 3074 3074 3074 3075 3075 3078 3078 3078 3079 3078 3079 3081 3081 3081 3082 3084 3085 3085 3085 3084 3086 3087 3089 3092 3094 3095 3098 3099 3099 3101 3103 3105 3107 3109 3111 3112 3112 3113 3114 3116 3117 3117 3118 3119 3118 3118 3117 3118 3119 3121 3124 3126 3127 3128 3129 3130 3132 3133 3136 3137 3139 3140 3141 3142 3143 3144 3144 3144 3144 3145 3145 3145 3146
3065 3065 3066 3067 3068 3068 3069 3070 3071 3072 3072 3071 3073 3073 3073 3074 3075 3075 3076 3077 3077 3078 3077 3079 3080 3081 3081 3081 3083 3084 3083 3083 3083 3084 3086 3088 3091 3093 3095 3097 3098 3099 3101 3102 3104 3106 3109 3111 3111 3111 3112 3114 3116 3116 3117 3118 3118 3118 3117 3117 3118 3119 3121 3124 3126 3127 3128 3129 3130 3131 3133 3135 3137 3139 3140 3141 3142 3143 3143 3144 3144 3144 3144 3145 3145 3145
3062 3064 3065 3065 3065 3066 3067 3069 3070 3070 3071 3071 3072 3073 3073 3073 3074 3074 3075 3076 3076 3076 3077 3078 3080 3080 3080 3080 3081 3082 3081 3081 3082 3083 3084 3087 3090 3093 3095 3097 3098 3099 3100 3101 3103 3105 3108 3109 3110 3110 3111 3113 3115 3116 3116 3117 3118 3118 3117 3117 3118 3119 3121 3124 3125 3127 3128 3129 3130 3131 3133 3134 3136 3139 3140 3141 3142 3143 3143 3143 3143 3144 3144 3145 3145 3145
3061 3062 3063 3064 3064 3064 3065 3067 3067 3068 3069 3071 3071 3072 3073 3073 3073 3073 3074 3075 3076 3075 3076 3077 3079 3080 3080 3080 3080 3080 3079 3079 3080 3082 3083 3086 3090 3093 3094 3096 3098 3098 3098 3100 3102 3105 3106 3108 3108 3109 3111 3112 3114 3115 3116 3117 3117 3118 3117 3118 3119 3120 3121 3123 3125 3127 3128 3129 3130 3131 3133 3134 3136 3138 3139 3141 3142 3142 3143 3143 3143 3143 3144 3145 3145 3145
3059 3060 3061 3062 3063 3064 3065 3065 3066 3066 3067 3069 3070 3071 3073 3073 3073 3074 3073 3073 3074 3074 3075 3076 3077 3078 3078 3079 3079 3079 3079 3079 3080 3082 3082 3086 3090 3091 3093 3095 3096 3096 3096 3098 3101 3103 3104 3106 3107 3109 3110 3112 3112 3113 3114 3115 3116 3117 3117 3118 3119 3120 3122 3123 3125 3126 3127 3129 3130 3132 3133 3134 3136 3137 3139 3140 3141 3142 3142 3143 3143 3143 3144 3144 3144 3144
3058 3058 3060 3061 3061 3062 3064 3063 3064 3065 3065 3066 3067 3069 3071 3072 3074 3075 3073 3072 3073 3073 3074 3075 3076 3076 3077 3079 3078 3078 3079 3079 3079 3082 3083 3086 3089 3090 3091 3092 3093 3094 3095 3096 3099 3100 3102 3104 3106 3107 3109 3110 3111 3111 3112 3114 3115 3116 3116 3117 3118 3120 3121 3123 3124 3126 3127 3129 3130 3131 3133 3134 3136 3137 3138 3140 3141 3142 3142 3143 3143 3144 3144 3144 3144 3144
3057 3056 3057 3059 3059 3059 3061 3061 3062 3064 3064 3065 3066 3067 3068 3069 3071 3073 3073 3073 3073 3073 3073 3074 3075 3076 3077 3079 3078 3078 3079 3078 3078 3080 3082 3085 3088 3089 3089 3090 3091 3092 3093 3095 3097 3098 3100 3103 3105 3107 3108 3108 3109 3110 3111 3112 3113 3114 3115 3116 3117 3118 3120 3122 3123 3125 3126 3128 3130 3131 3132 3134 3136 3137 3138 3139 3140 3141 3142 3143 3143 3144 3144 3144 3144 3144
3055 3054 3055 3057 3057 3058 3059 3060 3061 3063 3063 3064 3065 3066 3066 3066 3068 3070 3072 3073 3073 3073 3073 3073 3075 3076 3077 3079 3079 3078 3078 3078 3078 3079 3081 3083 3086 3087 3088 3089 3090 3091 3091 3093 3095 3097 3099 3102 3105 3107 3107 3107 3108 3108 3109 3110 3111 3111 3113 3114 3116 3117 3118 3120 3122 3124 3125 3127 3128 3130 3132 3133 3135 3136 3137 3138 3140 3141 3142 3143 3143 3143 3143 3144 3144 3144
3054 3053 3054 3055 3055 3056 3057 3059 3060 3061 3061 3062 3064 3064 3064 3065 3067 3068 3071 3072 3072 3074 3074 3073 3075 3076 3077 3079 3079 3078 3078 3078 3078 3079 3080 3082 3084 3086 3088 3088 3089 3090 3090 3092 3093 3095 3097 3100 3103 3105 3106 3107 3106 3106 3107 3107 3108 3109 3111 3113 3114 3115 3116 3118 3120 3122 3123 3125 3126 3128 3130 3132 3134 3135 3137 3138 3139 3140 3141 3142 3143 3143 3143 3143 3144 3145
3053 3052 3053 3053 3053 3055 3057 3058 3059 3060 3061 3061 3063 3063 3063 3064 3065 3066 3069 3071 3072 3074 3073 3072 3073 3075 3076 3077 3077 3077 3077 3078 3079 3080 3081 3082 3084 3086 3087 3088 3088 3089 3090 3091 3092 3094 3096 3099 3100 3102 3104 3105 3105 3104 3103 3104 3105 3107 3109 3111 3113 3114 3114 3116 3118 3120 3121 3123 3124 3126 3128 3130 3132 3134 3136 3137 3139 3140 3141 3142 3142 3142 3143 3143 3144 3145
3052 3051 3051 3052 3053 3054 3056 3057 3057 3058 3059 3060 3061 3062 3062 3064 3065 3065 3067 3070 3072 3075 3073 3071 3072 3075 3076 3076 3076 3076 3076 3077 3079 3080 3081 3083 3084 3085 3086 3087 3088 3088 3089 3090 3092 3093 3096 3098 3099 3100 3101 3103 3103 3101 3100 3101 3102 3104 3107 3109 3111 3113 3114 3115 3117 3118 3120 3121 3122 3124 3127 3129 3131 3133 3134 3136 3138 3139 3140 3141 3141 3142 3142 3143 3144 3144
3050 3050 3049 3051 3052 3053 3054 3055 3056 3057 3058 3059 3060 3061 3060 3062 3064 3065 3066 3068 3070 3073 3073 3072 3074 3076 3076 3075 3075 3076 3076 3077 3078 3079 3081 3082 3084 3085 3086 3087 3087 3088 3088 3090 3091 3092 3094 3096 3097 3098 3099 3101 3102 3100 3099 3100 3099 3102 3106 3108 3109 3112 3113 3114 3116 3117 3119 3120 3121 3123 3125 3127 3129 3131 3133 3135 3137 3138 3139 3140 3140 3141 3142 3142 3143 3144
3049 3049 3048 3050 3051 3052 3054 3056 3056 3056 3057 3058 3058 3059 3059 3061 3063 3064 3065 3066 3067 3070 3071 3072 3075 3076 3075 3073 3073 3075 3077 3078 3078 3080 3080 3082 3083 3085 3086 3086 3087 3087 3088 3089 3090 3091 3092 3094 3095 3096 3097 3100 3101 3100 3100 3100 3100 3102 3105 3107 3109 3110 3111 3113 3114 3115 3117 3119 3121 3123 3124 3126 3128 3130 3132 3134 3135 3136 3138 3139 3139 3140 3141 3142 3143 3144
3049 3048 3048 3049 3050 3051 3054 3056 3055 3054 3055 3056 3056 3058 3059 3059 3060 3062 3064 3064 3065 3067 3069 3071 3074 3075 3074 3072 3072 3074 3076 3077 3079 3080 3081 3081 3083 3084 3085 3085 3085 3086 3086 3088 3089 3090 3090 3091 3092 3093 3096 3098 3099 3099 3101 3102 3102 3104 3105 3106 3108 3109 3110 3111 3112 3113 3114 3117 3120 3122 3123 3125 3127 3129 3131 3133 3134 3135 3136 3138 3138 3139 3140 3141 3143 3144
3049 3047 3048 3048 3049 3051 3053 3054 3054 3053 3054 3055 3055 3056 3056 3057 3058 3059 3061 3063 3064 3066 3069 3070 3073 3075 3074 3072 3072 3074 3075 3076 3079 3080 3081 3082 3083 3083 3084 3085 3086 3086 3086 3086 3087 3088 3088 3089 3091 3093 3095 3096 3097 3099 3102 3104 3105 3105 3105 3106 3106 3107 3109 3109 3108 3108 3110 3114 3118 3121 3123 3124 3126 3128 3129 3131 3133 3134 3135 3136 3137 3138 3139 3140 3142 3143
3048 3047 3047 3048 3048 3049 3050 3051 3051 3052 3053 3054 3055 3056 3056 3057 3057 3058 3059 3061 3063 3066 3068 3069 3072 3074 3074 3073 3074 3075 3074 3075 3077 3079 3080 3081 3081 3081 3083 3084 3085 3085 3085 3085 3086 3086 3087 3088 3091 3092 3094 3095 3096 3098 3100 3102 3104 3104 3104 3105 3104 3104 3104 3102 3102 3104 3108 3113 3116 3119 3121 3122 3124 3126 3128 3129 3130 3131 3132 3133 3135 3136 3138 3139 3140 3141
3046 3046 3047 3048 3048 3048 3048 3049 3050 3052 3053 3054 3055 3057 3057 3057 3057 3058 3059 3060 3063 3065 3066 3067 3070 3072 3072 3073 3074 3074 3073 3072 3074 3075 3076 3077 3078 3079 3080 3082 3083 3083 3083 3083 3084 3085 3087 3088 3089 3091 3092 3093 3095 3096 3097 3099 3101 3102 3103 3102 3101 3101 3101 3101 3104 3108 3112 3115 3116 3118 3119 3121 3122 3124 3127 3128 3128 3128 3129 3129 3130 3132 3135 3137 3139 3140
3044 3045 3047 3049 3049 3049 3049 3049 3050 3052 3053 3054 3055 3056 3057 3057 3057 3058 3060 3060 3061 3063 3063 3064 3067 3070 3071 3072 3073 3073 3073 3072 3073 3074 3075 3077 3080 3081 3082 3083 3084 3085 3085 3085 3085 3086 3088 3089 3089 3090 3091 3093 3093 3094 3095 3097 3100 3101 3102 3102 3102 3103 3103 3105 3108 3111 3112 3114 3115 3116 3118 3119 3121 3122 3124 3125 3125 3125 3126 3126 3127 3129 3132 3134 3137 3138
3042 3045 3047 3049 3049 3049 3048 3048 3050 3051 3052 3053 3055 3056 3056 3057 3057 3057 3059 3060 3061 3061 3062 3063 3065 3068 3070 3071 3071 3072 3073 3073 3073 3074 3074 3077 3080 3082 3084 3086 3086 3086 3087 3088 3089 3089 3089 3091 3091 3091 3092 3093 3094 3095 3096 3097 3099 3100 3101 3102 3103 3104 3105 3106 3108 3109 3110 3111 3112 3113 3115 3117 3118 3119 3120 3122 3122 3123 3123 3123 3126 3129 3130 3131 3134 3136
3042 3044 3047 3048 3048 3048 3047 3047 3049 3050 3051 3053 3055 3056 3056 3057 3057 3057 3058 3060 3060 3061 3063 3065 3066 3067 3068 3070 3070 3071 3072 3072 3073 3073 3074 3077 3080 3082 3084 3085 3086 3086 3086 3088 3090 3090 3091 3093 3093 3092 3093 3093 3094 3095 3096 3097 3098 3099 3100 3101 3102 3103 3104 3105 3105 3106 3107 3108 3109 3111 3112 3114 3115 3115 3117 3119 3120 3120 3121 3122 3125 3128 3129 3130 3132 3133
3042 3044 3046 3046 3047 3047 3047 3046 3048 3050 3051 3053 3054 3055 3056 3058 3058 3058 3058 3059 3060 3060 3062 3065 3066 3067 3068 3068 3069 3070 3071 3072 3073 3074 3075 3077 3079 3081 3082 3084 3085 3086 3086 3087 3089 3090 3091 3092 3092 3092 3093 3094 3095 3095 3096 3097 3098 3098 3100 3101 3102 3103 3104 3105 3105 3106 3106 3107 3108 3110 3111 3111 3112 3113 3115 3117 3118 3118 3119 3120 3123 3125 3127 3128 3129 3131
3041 3043 3044 3045 3045 3046 3046 3047 3048 3050 3051 3053 3054 3054 3055 3057 3058 3059 3059 3059 3059 3059 3060 3063 3065 3066 3067 3068 3068 3069 3071 3073 3073 3074 3075 3077 3079 3080 3081 3083 3084 3084 3085 3086 3088 3090 3091 3092 3092 3092 3092 3093 3094 3095 3096 3097 3098 3098 3099 3101 3103 3104 3105 3106 3106 3106 3106 3106 3107 3109 3110 3111 3112 3113 3114 3115 3116 3117 3119 3121 3122 3123 3125 3127 3128 3129
3040 3041 3043 3043 3044 3045 3046 3047 3048 3049 3051 3053 3054 3054 3055 3056 3058 3059 3059 3059 3060 3060 3061 3062 3064 3066 3067 3068 3068 3070 3072 3073 3074 3074 3075 3077 3079 3080 3081 3082 3082 3083 3085 3086 3088 3089 3091 3092 3092 3092 3092 3092 3093 3094 3095 3096 3097 3098 3099 3100 3102 3103 3104 3105 3105 3105 3105 3105 3106 3108 3110 3110 3112 3113 3114 3114 3114 3116 3118 3121 3122 3123 3124 3126 3127 3127
3040 3040 3042 3043 3044 3045 3046 3047 3048 3049 3051 3053 3054 3055 3056 3056 3057 3058 3059 3060 3061 3061 3062 3062 3063 3064 3066 3067 3068 3069 3071 3072 3073 3074 3075 3077 3079 3080 3080 3081 3082 3083 3084 3086 3087 3088 3090 3091 3092 3092 3092 3093 3093 3094 3094 3095 3095 3097 3098 3099 3100 3102 3103 3104 3105 3105 3104 3105 3106 3107 3108 3109 3110 3111 3112 3113 3114 3115 3117 3118 3120 3121 3122 3123 3124 3125
3040 3041 3042 3043 3044 3045 3046 3047 3048 3049 3051 3053 3054 3055 3056 3056 3057 3059 3059 3060 3061 3061 3062 3062 3063 3064 3065 3067 3068 3069 3070 3072 3073 3074 3075 3077 3078 3079 3079 3080 3081 3082 3084 3085 3086 3088 3089 3090 3091 3092 3093 3094 3094 3095 3095 3095 3095 3096 3097 3098 3100 3101 3103 3104 3104 3105 3105 3105 3105 3106 3107 3108 3108 3109 3110 3111 3113 3115 3116 3117 3118 3119 3120 3122 3123 3123
3040 3042 3043 3044 3045 3046 3046 3047 3048 3050 3053 3055 3055 3054 3054 3055 3057 3059 3060 3061 3061 3061 3062 3063 3064 3066 3067 3068 3070 3070 3071 3072 3074 3074 3075 3076 3077 3078 3079 3080 3081 3082 3083 3084 3085 3087 3088 3089 3090 3091 3093 3094 3095 3096 3096 3095 3095 3096 3096 3097 3099 3100 3102 3103 3103 3104 3104 3104 3104 3105 3105 3106 3107 3108 3109 3110 3112 3114 3115 3116 3117 3117 3118 3120 3121 3121
3040 3041 3042 3043 3045 3047 3047 3048 3050 3052 3054 3055 3055 3054 3054 3055 3057 3058 3060 3061 3062 3062 3063 3064 3066 3067 3068 3069 3070 3070 3071 3072 3073 3075 3075 3076 3076 3077 3078 3079 3081 3082 3082 3082 3084 3086 3087 3088 3090 3091 3093 3094 3095 3095 3096 3095 3095 3096 3095 3096 3097 3098 3099 3100 3101 3102 3103 3103 3104 3104 3105 3105 3106 3106 3107 3108 3109 3111 3112 3114 3114 3115 3116 3118 3118 3118
3040 3040 3041 3042 3044 3046 3046 3048 3051 3053 3053 3054 3053 3053 3054 3055 3056 3057 3059 3061 3062 3062 3063 3065 3066 3067 3068 3069 3070 3070 3071 3072 3073 3074 3075 3075 3076 3077 3077 3078 3080 3081 3082 3081 3081 3083 3085 3087 3089 3090 3091 3091 3092 3094 3095 3096 3095 3095 3095 3095 3096 3097 3097 3098 3099 3100 3101 3101 3102 3103 3103 3104 3104 3105 3105 3106 3107 3108 3110 3111 3112 3113 3115 3116 3117 3116
3039 3040 3040 3041 3042 3044 3045 3047 3051 3052 3053 3053 3053 3052 3053 3055 3056 3056 3058 3061 3063 3063 3063 3064 3065 3066 3067 3068 3068 3069 3070 3071 3072 3073 3074 3075 3075 3076 3077 3078 3079 3081 3082 3082 3082 3083 3085 3087 3088 3089 3089 3090 3091 3093 3095 3095 3095 3095 3095 3095 3095 3096 3097 3097 3098 3099 3099 3100 3100 3101 3102 3103 3103 3103 3104 3105 3106 3107 3109 3110 3112 3112 3113 3114 3115 3114
3038 3039 3040 3040 3041 3043 3045 3047 3050 3052 3052 3053 3052 3052 3053 3055 3056 3057 3057 3059 3062 3063 3063 3063 3064 3064 3065 3066 3066 3067 3068 3069 3071 3073 3074 3075 3075 3076 3076 3077 3079 3081 3082 3082 3083 3084 3085 3086 3087 3088 3089 3090 3091 3092 3093 3094 3094 3094 3094 3094 3094 3095 3096 3096 3097 3098 3098 3099 3099 3100 3101 3102 3102 3102 3103 3104 3106 3107 3108 3109 3110 3110 3110 3111 3111 3111
3037 3038 3039 3040 3041 3042 3044 3045 3048 3050 3051 3052 3053 3053 3053 3054 3056 3056 3056 3059 3062 3063 3064 3064 3064 3064 3065 3065 3065 3066 3067 3068 3070 3072 3073 3074 3075 3076 3076 3077 3079 3080 3081 3082 3082 3083 3084 3085 3086 3087 3088 3089 3089 3090 3091 3092 3092 3092 3092 3093 3094 3095 3096 3096 3096 3096 3096 3097 3097 3098 3099 3100 3101 3101 3101 3102 3103 3104 3105 3105 3106 3106 3107 3107 3108 3109
3037 3038 3038 3039 3041 3042 3043 3045 3047 3049 3050 3051 3052 3052 3053 3054 3055 3055 3057 3060 3062 3062 3063 3064 3064 3065 3065 3065 3065 3066 3066 3067 3069 3070 3070 3072 3073 3075 3076 3078 3079 3080 3080 3081 3082 3082 3084 3084 3085 3086 3087 3087 3088 3089 3090 3090 3091 3091 3092 3093 3093 3094 3094 3095 3095 3095 3096 3096 3096 3096 3097 3097 3098 3099 3099 3099 3100 3101 3101 3102 3103 3103 3104 3105 3106 3106
3038 3038 3039 3040 3041 3042 3043 3045 3047 3049 3049 3050 3051 3051 3052 3054 3055 3056 3058 3061 3062 3062 3063 3063 3064 3065 3066 3066 3066 3066 3067 3068 3068 3069 3069 3070 3072 3074 3076 3077 3078 3079 3080 3081 3081 3082 3083 3083 3084 3084 3085 3086 3087 3088 3089 3089 3090 3091 3091 3092 3093 3093 3093 3093 3094 3094 3094 3095 3095 3095 3096 3096 3095 3095 3096 3096 3097 3098 3099 3100 3101 3101 3102 3102 3103 3103
3038 3039 3040 3041 3042 3043 3044 3045 3047 3049 3049 3050 3050 3050 3051 3054 3055 3056 3058 3059 3060 3062 3062 3062 3064 3065 3065 3066 3066 3066 3067 3068 3068 3069 3070 3070 3072 3074 3076 3077 3077 3078 3079 3080 3080 3081 3081 3082 3082 3083 3084 3085 3086 3086 3087 3088 3088 3089 3090 3090 3091 3092 3092 3092 3092 3092 3092 3093 3093 3093 3094 3094 3094 3094 3094 3094 3094 3095 3096 3096 3097 3098 3099 3099 3100 3100
3039 3040 3041 3042 3042 3043 3044 3046 3048 3050 3050 3050 3050 3050 3051 3052 3054 3055 3056 3057 3059 3061 3062 3062 3064 3065 3065 3066 3066 3066 3067 3067 3068 3069 3070 3071 3071 3072 3074 3076 3077 3077 3077 3078 3079 3079 3080 3080 3081 3082 3082 3083 3084 3085 3085 3086 3086 3087 3087 3087 3088 3089 3089 3089 3089 3089 3090 3090 3090 3090 3091 3091 3091 3091 3091 3091 3091 3092 3092 3093 3094 3095 3095 3096 3097 3097
3040 3041 3042 3042 3043 3043 3044 3046 3049 3050 3050 3050 3050 3050 3051 3052 3054 3055 3056 3057 3059 3061 3062 3063 3064 3065 3065 3066 3067 3067 3067 3068 3068 3069 3070 3071 3071 3071 3072 3073 3074 3075 3075 3075 3075 3076 3077 3078 3079 3080 3080 3081 3082 3082 3083 3083 3083 3084 3084 3084 3084 3085 3085 3085 3085 3085 3086 3086 3086 3087 3087 3087 3088 3088 3088 3088 3088 3088 3089 3090 3090 3091 3092 3093 3093 3094
3042 3042 3042 3043 3043 3044 3045 3047 3049 3050 3050 3050 3050 3051 3052 3053 3054 3056 3057 3058 3059 3061 3062 3063 3064 3064 3065 3066 3066 3067 3068 3068 3068 3069 3069 3070 3070 3070 3070 3070 3070 3071 3072 3072 3073 3073 3074 3075 3076 3077 3077 3078 3078 3079 3079 3079 3080 3080 3080 3081 3081 3081 3082 3082 3082 3082 3082 3082 3082 3082 3083 3083 3084 3085 3085 3085 3086 3086 3086 3086 3087 3088 3088 3089 3089 3090
3043 3043 3043 3043 3044 3045 3046 3049 3050 3051 3051 3051 3051 3051 3052 3054 3055 3057 3058 3059 3060 3061 3061 3062 3063 3064 3065 3066 3066 3067 3067 3068 3067 3067 3068 3068 3068 3068 3068 3068 3067 3067 3068 3068 3069 3070 3071 3071 3072 3073 3073 3073 3074 3074 3075 3075 3075 3076 3076 3077 3077 3077 3077 3078 3078 3078 3078 3078 3078 3078 3079 3079 3080 3081 3081 3082 3082 3082 3083 3083 3083 3084 3084 3085 3085 3086
3044 3044 3043 3044 3045 3046 3047 3050 3051 3051 3051 3052 3052 3053 3054 3055 3056 3057 3058 3059 3060 3060 3060 3061 3062 3063 3064 3065 3065 3066 3066 3066 3065 3065 3065 3065 3065 3065 3065 3065 3064 3064 3064 3065 3066 3068 3068 3068 3068 3068 3068 3068 3069 3070 3070 3071 3071 3071 3072 3072 3072 3072 3072 3072 3073 3073 3073 3074 3074 3074 3075 3075 3075 3076 3076 3077 3077 3078 3078 3078 3078 3079 3080 3080 3081 3081
3045 3044 3044 3045 3045 3046 3048 3050 3051 3052 3052 3052 3053 3054 3055 3056 3056 3057 3058 3058 3058 3058 3059 3060 3060 3061 3062 3062 3062 3063 3063 3063 3062 3062 3062 3062 3061 3061 3061 3062 3062 3061 3061 3062 3063 3064 3065 3065 3064 3063 3063 3063 3064 3064 3065 3066 3066 3066 3066 3067 3067 3067 3067 3067 3067 3068 3068 3069 3069 3070 3070 3070 3071 3071 3072 3072 3072 3073 3073 3073 3074 3074 3075 3076 3076 3076
3045 3044 3045 3046 3046 3047 3049 3050 3051 3052 3052 3053 3053 3054 3055 3056 3056 3056 3056 3056 3057 3057 3058 3058 3059 3060 3060 3060 3060 3060 3060 3060 3061 3061 3061 3060 3059 3058 3059 3059 3060 3060 3060 3060 3060 3060 3060 3060 3059 3059 3060 3060 3060 3060 3060 3060 3060 3061 3061 3061 3062 3062 3061 3062 3062 3062 3063 3063 3063 3064 3064 3064 3065 3065 3066 3066 3067 3067 3068 3069 3069 3069 3070 3071 3071 3071
3045 3045 3046 3046 3046 3048 3049 3050 3051 3051 3052 3053 3054 3055 3055 3056 3056 3056 3056 3057 3056 3057 3057 3057 3058 3058 3058 3058 3058 3059 3059 3059 3059 3059 3059 3059 3058 3057 3056 3056 3057 3058 3059 3058 3056 3056 3056 3056 3056 3056 3056 3056 3056 3056 3056 3055 3055 3055 3055 3056 3056 3056 3056 3056 3056 3057 3057 3057 3057 3058 3058 3059 3059 3059 3059 3060 3060 3061 3062 3062 3062 3063 3064 3065 3066 3066
3047 3047 3047 3047 3047 3048 3050 3051 3051 3051 3052 3053 3054 3054 3055 3055 3056 3056 3056 3056 3056 3056 3056 3057 3057 3057 3057 3057 3057 3057 3057 3056 3056 3056 3057 3058 3057 3055 3054 3054 3055 3055 3055 3053 3053 3053 3053 3053 3053 3053 3053 3052 3052 3052 3052 3051 3051 3051 3051 3051 3051 3051 3051 3051 3051 3051 3051 3052 3052 3052 3052 3053 3053 3053 3053 3053 3054 3054 3055 3055 3056 3056 3057 3058 3060 3061